EW3012 Weather Reports


time (UTC)temp
F
wind
direction
speed
knots
gust
knots
rain 1hr
in
rain 24hr
in
rain mn
in
humidity
%
barometer
mb
20260508043813 57 262 0.0 0.0 0.00 0.00 0.00 81 1015.3
20260508043314 56 261 0.0 0.0 0.00 0.00 0.00 82 1015.3
20260508042814 55 262 0.0 0.0 0.00 0.00 0.00 81 1015.2
20260508042328 55 261 0.0 0.0 0.00 0.00 0.00 81 1015.2
20260508041815 54 262 0.0 0.0 0.00 0.00 0.00 81 1015.2
20260508041313 53 262 0.0 0.0 0.00 0.00 0.00 81 1015.2
20260508041240 53 262 0.0 0.0 0.00 0.00 0.00 82 1015.1
20260508040314 53 261 0.0 0.0 0.00 0.00 0.00 82 1015.0
20260508040225 52 262 0.0 0.0 0.00 0.00 0.00 82 1015.0
20260508035743 53 261 0.0 0.0 0.00 0.00 0.00 82 1014.9
20260508034812 53 261 0.0 0.0 0.00 0.00 0.00 82 1014.9
20260508034312 53 262 0.0 0.0 0.00 0.00 0.00 82 1015.0
20260508033810 53 261 0.0 0.0 0.00 0.00 0.00 82 1015.0
20260508033312 53 261 0.0 0.0 0.00 0.00 0.00 82 1015.0
20260508033153 54 259 0.0 0.0 0.00 0.00 0.00 82 1014.8
20260508032954 54 261 0.0 0.0 0.00 0.00 0.00 82 1014.9
20260508032503 54 262 0.0 0.0 0.00 0.00 0.00 82 1014.9
20260508031309 54 259 0.0 0.0 0.00 0.00 0.00 82 1014.8
20260508030810 54 268 0.0 0.0 0.00 0.00 0.00 82 1014.8
20260508030309 54 266 0.0 0.0 0.00 0.00 0.00 83 1014.8
20260508025811 54 268 0.0 0.0 0.00 0.00 0.00 83 1014.7
20260508025720 54 266 0.0 0.0 0.00 0.00 0.00 83 1014.5
20260508024812 54 268 0.0 0.0 0.00 0.00 0.00 83 1014.5
20260508024308 54 268 0.0 0.0 0.00 0.00 0.00 83 1014.5
20260508023809 54 268 0.0 0.0 0.00 0.00 0.00 83 1014.7
20260508023309 54 268 0.0 0.0 0.00 0.00 0.00 83 1014.5
20260508022810 54 268 0.0 0.0 0.00 0.00 0.00 83 1014.5
20260508022308 54 268 0.0 0.0 0.00 0.00 0.00 83 1014.4
20260508021809 54 268 0.0 0.0 0.00 0.00 0.00 83 1014.5
20260508021309 54 268 0.0 0.0 0.00 0.00 0.00 84 1014.5
20260508020809 54 268 0.0 0.0 0.00 0.00 0.00 84 1014.4
20260508020310 54 266 0.0 0.0 0.00 0.00 0.00 84 1014.5
20260508015808 54 268 0.0 0.0 0.00 0.00 0.00 84 1014.5
20260508015309 54 268 0.0 0.0 0.00 0.00 0.00 84 1014.5
20260508015213 54 268 0.0 0.0 0.00 0.00 0.00 84 1014.5
20260508014956 54 268 0.0 0.0 0.00 0.00 0.00 84 1014.5
20260508013808 54 268 0.0 0.0 0.00 0.00 0.00 84 1014.8
20260508013648 55 268 0.0 0.0 0.00 0.00 0.00 85 1014.7
20260508013641 55 268 0.0 0.0 0.00 0.00 0.00 85 1014.7
20260508013448 54 268 0.0 0.0 0.00 0.00 0.00 85 1014.7
20260508011811 55 268 0.0 0.0 0.00 0.00 0.00 85 1014.8
20260508011311 55 268 0.0 0.0 0.00 0.00 0.00 85 1014.8
20260508010807 55 268 0.0 0.0 0.00 0.00 0.00 85 1014.8
20260508010723 55 268 0.0 0.0 0.00 0.00 0.00 86 1014.7
20260508005807 55 268 0.0 0.0 0.00 0.00 0.00 86 1014.8
20260508005307 55 268 0.0 0.0 0.00 0.00 0.00 86 1014.8
20260508004806 55 268 0.0 0.0 0.00 0.00 0.00 86 1014.8
20260508004308 55 268 0.0 0.0 0.00 0.00 0.00 86 1014.7
20260508003805 55 268 0.0 0.0 0.00 0.00 0.00 86 1014.7
20260508003307 55 268 0.0 0.0 0.00 0.00 0.00 87 1014.7
20260508002806 55 266 0.0 0.0 0.00 0.00 0.00 87 1014.7
20260508002734 55 268 0.0 0.0 0.00 0.00 0.00 87 1014.7
20260508002238 55 268 0.0 0.0 0.00 0.00 0.00 87 1014.9
20260508001305 55 268 0.0 0.0 0.00 0.00 0.00 87 1014.9
20260508001204 55 268 0.0 0.0 0.00 0.00 0.00 87 1014.9
20260508000955 55 268 0.0 0.0 0.00 0.00 0.00 87 1015.0
20260507235807 55 268 0.0 0.0 0.00 0.00 0.00 87 1015.0
20260507235306 55 259 0.0 0.0 0.00 0.00 0.00 87 1015.0
20260507234806 55 271 0.0 0.0 0.00 0.00 0.00 87 1014.9
20260507234306 55 271 0.0 0.0 0.00 0.00 0.00 87 1015.0
20260507234235 54 271 0.0 0.0 0.00 0.00 0.00 87 1015.0
20260507233304 54 271 0.0 0.0 0.00 0.00 0.00 87 1015.0
20260507232805 55 271 0.0 0.0 0.00 0.00 0.00 87 1015.1
20260507232726 55 271 0.0 0.0 0.00 0.00 0.00 87 1015.0
20260507231805 55 271 0.0 0.0 0.00 0.00 0.00 87 1015.1
20260507231306 55 271 0.0 0.0 0.00 0.00 0.00 87 1015.2
20260507230803 55 271 0.0 0.0 0.00 0.00 0.00 87 1015.3
20260507230305 55 271 0.0 0.0 0.00 0.00 0.00 87 1015.2
20260507225805 55 269 0.0 0.0 0.00 0.00 0.00 87 1015.4
20260507225306 56 269 0.0 0.0 0.00 0.00 0.00 87 1015.3
20260507224804 56 271 0.0 0.0 0.00 0.00 0.00 87 1015.3
20260507224304 56 268 0.0 0.0 0.00 0.00 0.00 87 1015.3
20260507223805 56 275 0.0 0.0 0.00 0.00 0.00 87 1015.2
20260507223303 56 252 0.0 0.0 0.00 0.00 0.00 87 1015.4
20260507222805 56 278 0.0 0.0 0.00 0.00 0.00 87 1015.4
20260507222306 55 274 0.0 0.0 0.00 0.00 0.00 87 1015.5
20260507222233 55 245 0.0 0.0 0.00 0.00 0.00 87 1015.6
20260507221302 55 245 0.0 0.0 0.00 0.00 0.00 87 1015.6
20260507220801 55 245 0.0 0.0 0.00 0.00 0.00 87 1015.7
20260507220303 55 245 0.0 0.0 0.00 0.00 0.00 87 1015.7
20260507215803 55 245 0.0 0.0 0.00 0.00 0.00 87 1015.7
20260507215728 55 245 0.0 0.0 0.00 0.00 0.00 87 1015.8
20260507215206 55 245 0.0 0.0 0.00 0.00 0.00 87 1015.7
20260507214956 55 245 0.0 0.0 0.00 0.00 0.00 87 1015.7
20260507213804 55 245 0.0 0.0 0.00 0.00 0.00 87 1015.7
20260507213301 55 245 0.0 0.0 0.00 0.00 0.00 87 1015.7
20260507212802 56 245 0.0 0.0 0.00 0.00 0.00 87 1015.8
20260507212301 56 245 0.0 0.0 0.00 0.00 0.00 87 1015.7
20260507211803 56 244 0.0 0.0 0.00 0.00 0.00 87 1015.8
20260507211301 56 245 0.0 0.0 0.00 0.00 0.00 87 1015.8
20260507210802 56 245 0.0 0.0 0.00 0.00 0.00 87 1015.7
20260507210301 56 245 0.0 0.0 0.00 0.00 0.00 87 1015.7
20260507205804 56 245 0.0 0.0 0.00 0.00 0.00 87 1015.7
20260507205301 56 245 0.0 0.0 0.00 0.00 0.00 87 1015.8
20260507204800 56 245 0.0 0.0 0.00 0.00 0.00 87 1015.7
20260507204302 56 245 0.0 0.0 0.00 0.00 0.00 87 1015.6
20260507203801 56 245 0.0 0.0 0.00 0.00 0.00 87 1015.7
20260507203302 56 245 0.0 0.0 0.00 0.00 0.00 87 1015.7
20260507203219 56 245 0.0 0.0 0.00 0.00 0.00 87 1015.6
20260507202306 56 274 0.0 0.0 0.00 0.00 0.00 87 1015.7
20260507201802 56 274 0.0 0.0 0.00 0.00 0.00 87 1015.6
20260507201720 56 274 0.0 0.0 0.00 0.00 0.00 87 1015.7
20260507200759 56 274 0.0 0.0 0.00 0.00 0.00 87 1015.8
20260507200259 56 278 0.0 0.0 0.00 0.00 0.00 87 1015.9
20260507195800 56 278 0.0 0.0 0.00 0.00 0.00 87 1015.8
20260507195259 56 278 0.0 0.0 0.00 0.00 0.00 87 1015.8
20260507194800 56 276 0.0 0.0 0.00 0.00 0.00 87 1015.9
20260507194300 56 278 0.0 0.0 0.00 0.00 0.00 87 1015.8
20260507193802 56 278 0.0 0.0 0.00 0.00 0.00 87 1015.9
20260507193259 56 278 0.0 0.0 0.00 0.00 0.00 86 1015.8
20260507192801 56 278 0.0 0.0 0.00 0.00 0.00 86 1015.8
20260507192258 56 278 0.0 0.0 0.00 0.00 0.00 86 1015.9
20260507191758 56 278 0.0 0.0 0.00 0.00 0.00 85 1015.8
20260507191259 56 276 0.0 0.0 0.00 0.00 0.00 85 1015.8
20260507190758 57 278 0.0 0.0 0.00 0.00 0.00 84 1015.7
20260507190259 57 278 0.0 0.0 0.00 0.00 0.00 85 1015.6
20260507190217 56 254 0.0 0.0 0.00 0.00 0.00 85 1015.7
20260507185300 57 254 0.0 0.0 0.00 0.00 0.00 85 1015.6
20260507184758 57 254 0.0 0.0 0.00 0.00 0.00 85 1015.6
20260507184259 57 134 0.0 0.0 0.00 0.00 0.00 84 1015.5
20260507183758 57 135 0.0 0.0 0.00 0.00 0.00 84 1015.5
20260507183258 57 135 0.0 0.0 0.00 0.00 0.00 83 1015.4
20260507182758 58 134 0.0 0.0 0.00 0.00 0.00 83 1015.4
20260507182257 58 134 0.0 0.0 0.00 0.00 0.00 83 1015.3
20260507181759 58 134 0.0 0.0 0.00 0.00 0.00 82 1015.2
20260507181257 59 135 0.0 0.0 0.00 0.00 0.00 81 1015.2
20260507180759 59 135 0.0 0.0 0.00 0.00 0.00 80 1015.2
20260507180732 60 135 0.0 0.0 0.00 0.00 0.00 78 1015.0
20260507175757 60 135 0.0 0.0 0.00 0.00 0.00 78 1015.0
20260507175257 61 135 0.0 0.0 0.00 0.00 0.00 76 1015.0
20260507174757 61 135 0.0 0.0 0.00 0.00 0.00 75 1015.0
20260507174614 62 135 0.0 0.0 0.00 0.00 0.00 72 1014.8
20260507174607 63 135 0.0 0.0 0.00 0.00 0.00 72 1014.9
20260507174425 62 134 0.0 0.0 0.00 0.00 0.00 74 1014.9
20260507173939 62 135 0.0 0.0 0.00 0.00 0.00 73 1014.9
20260507172259 64 135 0.0 0.0 0.00 0.00 0.00 71 1014.8
20260507171756 64 135 0.0 0.0 0.00 0.00 0.00 70 1014.8
20260507171257 65 135 0.0 0.0 0.00 0.00 0.00 68 1014.8
20260507170758 65 135 0.0 0.0 0.00 0.00 0.00 67 1014.7
20260507170720 66 135 0.0 0.0 0.00 0.00 0.00 66 1014.7
20260507165755 66 135 0.0 0.0 0.00 0.00 0.00 66 1014.7
20260507165256 67 135 0.0 0.0 0.00 0.00 0.00 64 1014.5
20260507164757 67 135 0.0 0.0 0.00 0.00 0.00 63 1014.7
20260507164255 68 135 0.0 0.0 0.00 0.00 0.00 63 1014.7
20260507163758 68 135 0.0 0.0 0.00 0.00 0.00 62 1014.5
20260507163731 69 135 0.0 0.0 0.00 0.00 0.00 61 1014.7
20260507162754 69 135 0.0 0.0 0.00 0.00 0.00 60 1014.5
20260507162255 69 92 0.0 0.0 0.00 0.00 0.00 61 1014.5
20260507162227 69 148 0.0 0.9 0.00 0.00 0.00 59 1014.5
20260507161718 70 152 0.0 0.9 0.00 0.00 0.00 59 1014.5
20260507160755 70 128 0.0 0.0 0.00 0.00 0.00 58 1014.7
20260507160257 71 130 0.0 0.0 0.00 0.00 0.00 59 1014.5
20260507155754 71 131 0.0 0.0 0.00 0.00 0.00 55 1014.5
20260507155257 71 118 0.0 0.0 0.00 0.00 0.00 55 1014.5
20260507155214 71 97 0.0 0.0 0.00 0.00 0.00 56 1014.5
20260507154950 71 168 0.0 0.0 0.00 0.00 0.00 56 1014.5
20260507153754 71 85 0.0 2.6 0.00 0.00 0.00 57 1014.5
20260507153254 71 83 0.0 5.2 0.00 0.00 0.00 54 1014.5
20260507152754 71 164 1.7 5.2 0.00 0.00 0.00 53 1014.7
20260507152253 72 86 0.0 3.5 0.00 0.00 0.00 53 1014.5
20260507151754 72 113 0.0 5.2 0.00 0.00 0.00 53 1014.5
20260507151253 72 114 1.7 5.2 0.00 0.00 0.00 53 1014.7
20260507151222 72 134 0.0 1.7 0.00 0.00 0.00 53 1014.7
20260507150255 72 113 0.0 2.6 0.00 0.00 0.00 54 1014.7
20260507145753 73 179 0.9 4.3 0.00 0.00 0.00 52 1014.7
20260507145253 73 131 0.0 4.3 0.00 0.00 0.00 53 1014.5
20260507144753 73 138 0.0 3.5 0.00 0.00 0.00 52 1014.7
20260507144254 73 149 0.0 2.6 0.00 0.00 0.00 53 1014.7
20260507143753 74 59 0.0 1.7 0.00 0.00 0.00 52 1014.7
20260507143255 74 117 0.0 3.5 0.00 0.00 0.00 52 1014.8
20260507142752 74 149 0.0 3.5 0.00 0.00 0.00 53 1014.8
20260507142254 73 151 0.0 6.1 0.00 0.00 0.00 51 1014.8
20260507141752 73 157 1.7 6.1 0.00 0.00 0.00 52 1014.9
20260507141713 73 142 0.0 8.7 0.00 0.00 0.00 52 1014.8
20260507140753 74 34 1.7 8.7 0.00 0.00 0.00 51 1014.8
20260507140251 75 185 0.0 0.9 0.00 0.00 0.00 50 1014.8
20260507135749 75 199 0.0 6.1 0.00 0.00 0.00 52 1014.8
20260507135250 74 235 2.6 6.1 0.00 0.00 0.00 51 1014.8
20260507134748 74 137 0.9 7.8 0.00 0.00 0.00 50 1014.8
20260507134249 74 128 0.0 7.8 0.00 0.00 0.00 52 1014.9
20260507133749 74 130 0.9 4.3 0.00 0.00 0.00 51 1014.9
20260507133248 74 93 0.0 4.3 0.00 0.00 0.00 51 1015.0
20260507132749 74 141 0.9 4.3 0.00 0.00 0.00 51 1014.8
20260507132245 75 78 0.0 6.1 0.00 0.00 0.00 48 1014.9
20260507131746 75 245 0.0 6.1 0.00 0.00 0.00 50 1014.9
20260507131245 75 97 0.0 6.1 0.00 0.00 0.00 50 1015.0
20260507130744 75 233 0.9 6.1 0.00 0.00 0.00 48 1015.1
20260507130242 75 151 0.0 8.7 0.00 0.00 0.00 50 1015.0
20260507125747 75 155 0.0 8.7 0.00 0.00 0.00 48 1015.1
20260507125241 75 149 0.0 4.3 0.00 0.00 0.00 48 1015.1
20260507124741 74 78 0.9 6.1 0.00 0.00 0.00 50 1015.1
20260507124240 74 114 0.9 6.1 0.00 0.00 0.00 51 1015.2
20260507123741 75 134 1.7 6.1 0.00 0.00 0.00 50 1015.1
20260507123238 74 182 1.7 6.1 0.00 0.00 0.00 50 1015.2
20260507122739 74 147 0.0 8.7 0.00 0.00 0.00 50 1015.2
20260507122237 74 176 2.6 8.7 0.00 0.00 0.00 49 1015.3
20260507121738 74 221 0.0 4.3 0.00 0.00 0.00 49 1015.4
20260507121239 74 151 0.0 7.8 0.00 0.00 0.00 50 1015.4
20260507120738 74 109 0.9 7.8 0.00 0.00 0.00 50 1015.4
20260507120723 74 180 0.9 7.8 0.00 0.00 0.00 51 1015.4
20260507115736 73 96 1.7 7.8 0.00 0.00 0.00 50 1015.4
20260507115702 73 137 0.0 8.7 0.00 0.00 0.00 53 1015.5
20260507114733 73 161 1.7 8.7 0.00 0.00 0.00 51 1015.5
20260507114233 73 114 0.9 6.1 0.00 0.00 0.00 51 1015.5
20260507113733 73 145 0.9 4.3 0.00 0.00 0.00 50 1015.6
20260507113231 74 118 1.7 7.8 0.00 0.00 0.00 49 1015.5
20260507112733 73 159 0.0 7.8 0.00 0.00 0.00 50 1015.5
20260507112232 74 59 0.9 6.1 0.00 0.00 0.00 50 1015.4
20260507111733 73 233 0.0 6.1 0.00 0.00 0.00 49 1015.4
20260507111232 73 94 0.0 5.2 0.00 0.00 0.00 48 1015.4
20260507110732 74 141 0.9 5.2 0.00 0.00 0.00 48 1015.5
20260507110232 73 144 0.0 5.2 0.00 0.00 0.00 48 1015.5
20260507105733 73 131 0.9 7.8 0.00 0.00 0.00 50 1015.5
20260507105232 73 182 1.7 7.8 0.00 0.00 0.00 49 1015.4
20260507104734 73 87 0.0 7.8 0.00 0.00 0.00 50 1015.5
20260507104232 72 172 0.9 9.6 0.00 0.00 0.00 50 1015.6
20260507103731 73 125 1.7 9.6 0.00 0.00 0.00 49 1015.6
20260507103653 73 117 0.0 8.7 0.00 0.00 0.00 52 1015.6
20260507102731 72 138 1.7 8.7 0.00 0.00 0.00 49 1015.7
20260507102650 72 127 0.9 8.7 0.00 0.00 0.00 48 1015.6
20260507102117 72 141 1.7 8.7 0.00 0.00 0.00 49 1015.7
20260507102110 71 138 0.9 8.7 0.00 0.00 0.00 51 1015.7
20260507101910 72 128 0.9 8.7 0.00 0.00 0.00 50 1015.7
20260507100229 71 140 2.6 9.6 0.00 0.00 0.00 48 1015.8
20260507095731 71 121 5.2 9.6 0.00 0.00 0.00 50 1015.8
20260507095230 71 137 3.5 9.6 0.00 0.00 0.00 47 1015.8
20260507094726 71 59 1.7 8.7 0.00 0.00 0.00 49 1015.8
20260507094223 72 49 0.9 8.7 0.00 0.00 0.00 48 1015.8
20260507094158 72 142 2.6 8.7 0.00 0.00 0.00 50 1015.8
20260507093225 71 138 3.5 8.7 0.00 0.00 0.00 48 1015.9
20260507092726 72 107 0.9 9.6 0.00 0.00 0.00 47 1015.9
20260507092227 72 109 3.5 9.6 0.00 0.00 0.00 47 1015.9
20260507092153 72 102 1.7 8.7 0.00 0.00 0.00 50 1015.9
20260507091225 72 141 0.0 5.2 0.00 0.00 0.00 49 1015.9
20260507090723 72 124 0.0 5.2 0.00 0.00 0.00 46 1015.7
20260507090220 72 265 0.9 4.3 0.00 0.00 0.00 46 1015.9
20260507085721 71 121 0.9 5.2 0.00 0.00 0.00 47 1015.8
20260507085219 72 114 0.9 5.2 0.00 0.00 0.00 44 1015.8
20260507084718 72 128 1.7 5.2 0.00 0.00 0.00 46 1015.9
20260507084220 72 172 0.9 7.8 0.00 0.00 0.00 49 1015.9
20260507083720 72 133 2.6 7.8 0.00 0.00 0.00 48 1015.9
20260507083216 72 145 2.6 6.1 0.00 0.00 0.00 44 1015.9
20260507083136 72 155 0.9 5.2 0.00 0.00 0.00 47 1015.9
20260507082217 72 140 1.7 5.2 0.00 0.00 0.00 45 1015.8
20260507081714 72 135 0.0 0.0 0.00 0.00 0.00 45 1015.9
20260507081637 71 130 0.0 0.9 0.00 0.00 0.00 48 1015.8
20260507080713 70 124 0.0 2.6 0.00 0.00 0.00 46 1015.7
20260507080214 69 155 0.0 5.2 0.00 0.00 0.00 47 1015.8
20260507075713 69 68 3.5 5.2 0.00 0.00 0.00 46 1015.6
20260507075639 69 137 1.7 4.3 0.00 0.00 0.00 48 1015.7
20260507074711 69 92 1.7 4.3 0.00 0.00 0.00 46 1015.8
20260507074214 69 157 0.0 0.0 0.00 0.00 0.00 48 1015.9
20260507073710 69 123 0.0 0.0 0.00 0.00 0.00 46 1015.9
20260507073633 69 63 0.0 0.0 0.00 0.00 0.00 43 1015.9
20260507073147 70 131 0.0 0.0 0.00 0.00 0.00 43 1015.9
20260507072212 69 182 0.0 0.0 0.00 0.00 0.00 43 1015.9
20260507071707 70 209 0.0 0.0 0.00 0.00 0.00 44 1015.9
20260507071205 70 82 0.0 0.0 0.00 0.00 0.00 43 1015.8
20260507071102 68 151 0.0 0.0 0.00 0.00 0.00 47 1015.9
20260507070856 70 228 0.0 0.0 0.00 0.00 0.00 44 1015.8
20260507065704 68 255 0.0 0.0 0.00 0.00 0.00 55 1015.9
20260507065204 67 106 0.0 0.0 0.00 0.00 0.00 58 1015.9
20260507064702 67 158 0.0 0.0 0.00 0.00 0.00 55 1015.9
20260507064623 67 144 0.0 0.0 0.00 0.00 0.00 59 1015.8
20260507063703 67 145 0.0 0.0 0.00 0.00 0.00 62 1015.9
20260507063204 67 78 0.0 0.0 0.00 0.00 0.00 66 1015.8
20260507062703 67 336 0.0 0.0 0.00 0.00 0.00 68 1015.9
20260507062203 67 279 0.0 0.0 0.00 0.00 0.00 68 1015.8
20260507061702 66 261 0.0 0.0 0.00 0.00 0.00 72 1015.8
20260507061633 65 264 0.0 0.0 0.00 0.00 0.00 72 1015.8
20260507060703 63 264 0.0 0.0 0.00 0.00 0.00 74 1015.9
20260507060202 62 264 0.0 0.0 0.00 0.00 0.00 77 1016.0
20260507055704 61 264 0.0 0.0 0.00 0.00 0.00 78 1016.0
20260507055201 60 264 0.0 0.0 0.00 0.00 0.00 77 1016.0
20260507054703 61 264 0.0 0.0 0.00 0.00 0.00 79 1015.9
20260507054202 60 261 0.0 0.0 0.00 0.00 0.00 80 1016.0
20260507054132 60 262 0.0 0.0 0.00 0.00 0.00 81 1015.9
20260507053201 58 261 0.0 0.0 0.00 0.00 0.00 83 1015.9
20260507052700 57 262 0.0 0.0 0.00 0.00 0.00 85 1015.9
20260507052201 56 274 0.0 0.0 0.00 0.00 0.00 87 1016.0
20260507051700 55 275 0.0 0.0 0.00 0.00 0.00 87 1016.0
20260507051204 53 275 0.0 0.0 0.00 0.00 0.00 88 1016.0
20260507051126 51 274 0.0 0.0 0.00 0.00 0.00 87 1016.0
20260507050200 50 268 0.0 0.0 0.00 0.00 0.00 87 1016.1
20260507045701 50 268 0.0 0.0 0.00 0.00 0.00 86 1016.1
20260507045158 49 266 0.0 0.0 0.00 0.00 0.00 86 1016.1
20260507044657 48 268 0.0 0.0 0.00 0.00 0.00 85 1016.2
20260507044616 47 266 0.0 0.0 0.00 0.00 0.00 85 1016.2